Back to catalog

ONEWEB-0191

AliveCommunicationsPO
NORAD 48239·PAYLOAD·🇬🇧 United Kingdom

Launched Apr 25, 2021 from Vostochny Cosmodrome

Loading…

Next Passes (next 24 hours)

TLE

FreshSource: CelesTrak SupGP

Epoch: Sep 14, 2026, 16:20 UTC

1 48239C 21031AF  26257.68074491 -.00002222  00000+0 -59997-2 0  2571
2 48239  87.8893 271.8560 0001968  96.4904 304.5009 13.14502910    14

Track ONEWEB-0191 in real time with AllMySat

Download on the App Store